Lexington Weather

Lexington, Massachusetts, USA

38°F
3/2/2024 8:10am 
  • Lexington Conditions: Mostly cloudy
  • Temperature: 38.1°F / 3.4°CWarmer 1.2°F than last hour.
  • Dew Point: 32.5°FIncreased 1.2°Fsince last hour.
  • Relative Humidity: 80
  • Wind: Calm, 10-min avg: Calm, gust: None
  • Barometer: 30.46 in Steady
  • Visibility: 10 miles
  • Rain Today: 0.00 in
  •   

Regional Weather Roundup
for Boston, MA

        
000
ASUS41 KBOX 270810
RWRBOX

REGIONAL WEATHER ROUNDUP
NATIONAL WEATHER SERVICE BOSTON/NORTON MA
300 AM EST TUE FEB 27 2024

NOTE:  "FAIR" INDICATES FEW OR NO CLOUDS BELOW 12,000 FEET WITH NO 
SIGNIFICANT WEATHER AND/OR OBSTRUCTIONS TO VISIBILITY.

MAZALL-270900-
EASTERN MASSACHUSETTS
  
CITY           SKY/WX    TMP DP  RH WIND       PRES   REMARKS
BOSTON         CLEAR     34  33  96 S3        30.09F                  
BEVERLY        CLEAR     30  26  85 CALM      30.08S                  
LAWRENCE       CLEAR     31  28  89 CALM      30.10S                  
BEDFORD        CLEAR     27  26  96 CALM      30.07F                  
NORWOOD        CLEAR     29  27  92 CALM      30.09S                  
MARSHFIELD     CLOUDY    30  28  93 CALM      30.09S FOG              
PLYMOUTH       FOG       37  36  96 CALM      30.09S VSB 1/4          
TAUNTON        FOG       33  29  85 CALM      30.08F VSB 1/4          
NEW BEDFORD    FOG       38  38 100 S6        30.09F VSB 1/4          
$$

MAZALL-270900-
CAPE COD AND THE ISLANDS
  
CITY           SKY/WX    TMP DP  RH WIND       PRES   REMARKS
FALMOUTH       FOG       39  39 100 SW9       30.10S VSB 1/4          
HYANNIS        FOG       38  38 100 S5        30.09F VSB 1/2          
CHATHAM        FOG       40  39  97 S5        30.11F VSB 3/4          
PROVINCETOWN   LGT RAIN  36  36 100 S3        30.11S VSB 1/4          
NANTUCKET      CLEAR     37  37 100 S9        30.12S WCI  30          
MARTHAS VNYRD  FOG       36  36 100 S5        30.10S VSB 3/4          
$$
 
MAZALL-270900-
CENTRAL AND WESTERN MASSACHUSETTS
  
CITY           SKY/WX    TMP DP  RH WIND       PRES   REMARKS
WORCESTER      CLEAR     38  31  76 CALM      30.04S                  
FITCHBURG      CLEAR     27  25  92 NW3       30.08F                  
ORANGE         CLEAR     24  22  91 S3        30.08R                  
SPRINGFIELD    CLEAR     26  24  93 CALM      30.04F                  
WESTFIELD      PTCLDY    28  25  88 CALM      30.06S                  
NORTH ADAMS    CLEAR     32  26  78 E8        30.03F WCI  25          
PITTSFIELD     PTCLDY    27  24  89 CALM      30.00F                  
$$
 
RIZALL-270900-
RHODE ISLAND
  
CITY           SKY/WX    TMP DP  RH WIND       PRES   REMARKS
PROVIDENCE     FOG       33  33 100 S3        30.09F VSB 1/4          
NEWPORT        FOG       37  36  96 S7        30.09S VSB 1/4 WCI  32  
BLOCK ISLAND   FOG       38  38 100 S3        30.09F VSB 1/4          
SMITHFIELD       N/A    N/A N/A N/A MISG        N/A                   
WESTERLY       FOG       34  31  88 CALM      30.08F VSB 1/4          
$$
 
CTZALL-270900-
CONNECTICUT
  
CITY           SKY/WX    TMP DP  RH WIND       PRES   REMARKS
BRADLEY INTL   PTCLDY    29  26  89 CALM      30.06S                  
HARTFORD       PTCLDY    31  29  92 CALM      30.06F FOG              
PLAINVILLE     FAIR      29  29 100 CALM      30.05F                  
BRIDGEPORT     PTCLDY    36  33  89 NE8       30.05F WCI  30          
DANBURY        PTCLDY    30  26  85 CALM      30.05F                  
GROTON         FOG       38  38 100 CALM      30.08F VSB 1/4          
NEW HAVEN      CLOUDY    30  28  92 N3        30.06S FOG              
CHESTER        FOG       34  34 100 CALM      30.06S VSB<1/4          
MERIDEN        CLEAR     29  26  89 CALM      30.06F                  
WILLIMANTIC    CLEAR     26  25  96 CALM      30.08F                  
OXFORD         PTCLDY    32  31  96 E5        30.04F WCI  27          
$$

MEZ002-015-021-024-NHZ003-005-008-011-012-014-VTZ005-008-270900-
NORTHERN NEW ENGLAND
  
CITY           SKY/WX    TMP DP  RH WIND       PRES   REMARKS
PORTLAND ME    CLEAR     26  24  92 CALM      30.12R                  
BANGOR ME      PTCLDY    22  19  89 CALM      30.11R                  
CONCORD NH     CLEAR     26  24  92 CALM      30.09S                  
MANCHESTER NH  PTCLDY    31  24  75 CALM      30.07F                  
NASHUA NH      CLEAR     27  27 100 NW6       30.09F WCI  20          
PORTSMOUTH NH  PTCLDY    37  31  79 NE3       30.08F                  
JAFFREY NH     CLEAR     27  23  85 CALM      30.05S                  
KEENE NH       CLEAR     23  22  96 CALM      30.07S                  
BURLINGTON VT  CLEAR     31  22  69 S3        29.97F                  
MT. WASHINGTON PTCLDY    25  19  80 W44G55      N/A  WCI   5          
$$

NYZ052-076-270900-
EASTERN NEW YORK
  
CITY           SKY/WX    TMP DP  RH WIND       PRES   REMARKS
ALBANY         PTCLDY    29  25  85 CALM      30.02S                  
NEW YORK CITY  MOCLDY    39  34  82 NE6       30.03F                  
$$
 
ANZALL-270900-
MARINE OBSERVATIONS
  
STATION/POSITION TIME  TEMP    WIND        PRES    VSBY  WAVE
                       AIR SEA DIR/SP/G                  HT/PER
                 (UTC) (F)     (DEG/KT/KT) (MB)    (MI)  (FT/S)
BOSTON BUOY      0750   39 39  180/  4/  6 1018.6F         2/ 9
BUZZARDS BAY     0700   40     220/  4/  4 1019.8F
NANTUCKET SOUND  0750   40 37  190/  2/  4 1019.2R         1
MASS BAY-STELLWA 0604   41 40  200/  4/  6 1018.8S  1 7/8  2/11
ISLE OF SHOALS   0700   42      80/ 14/ 15 1018.5R
S OF BLOCK IS    0756      41                N/A           3/ 9
$$

......................KEY.........................
  SKY/WX - SKY CONDITION/PRESENT WEATHER
  TMP    - TEMPERATURE IN FAHRENHEIT
  DWPT   - DEWPOINT IN FAHRENHEIT
  RH     - RELATIVE HUMIDITY IN PERCENT
  WIND   - DIRECTION AND SPEED IN MPH
  PRES   - MEAN SEA LEVEL PRESSURE IN INCHES OF HG
  WCI    - WIND CHILL INDEX
  VSB    - VISIBILITY IN MILES
  HX     - HEAT INDEX
  TC     - TEMPERATURE IN CELSIUS
  VRB    - VARIABLE WIND DIRECTION
  N/A    - NOT AVAILABLE
  
      

Other recent Regional Weather Roundups

Sat Mar 2, 8:10am EST

Sat Mar 2, 7:10am EST

Sat Mar 2, 6:10am EST

Sat Mar 2, 5:10am EST

Sat Mar 2, 4:10am EST

Sat Mar 2, 3:10am EST

Sat Mar 2, 2:10am EST

Sat Mar 2, 1:10am EST

Sat Mar 2, 12:10am EST

Fri Mar 1, 11:10pm EST

Fri Mar 1, 10:10pm EST

Fri Mar 1, 9:10pm EST

Fri Mar 1, 8:10pm EST

Fri Mar 1, 7:10pm EST

Fri Mar 1, 6:10pm EST

Fri Mar 1, 5:10pm EST

Fri Mar 1, 4:10pm EST

Fri Mar 1, 3:10pm EST

Fri Mar 1, 2:10pm EST

Fri Mar 1, 1:10pm EST

Fri Mar 1, 12:10pm EST

Fri Mar 1, 11:10am EST

Fri Mar 1, 10:10am EST

Fri Mar 1, 9:10am EST

Fri Mar 1, 8:10am EST

Fri Mar 1, 7:10am EST

Fri Mar 1, 6:10am EST

Fri Mar 1, 5:10am EST

Fri Mar 1, 4:10am EST

Fri Mar 1, 3:10am EST

Fri Mar 1, 2:10am EST

Fri Mar 1, 1:10am EST

Fri Mar 1, 12:10am EST

Thu Feb 29, 11:10pm EST

Thu Feb 29, 10:10pm EST

Thu Feb 29, 9:10pm EST

Thu Feb 29, 8:10pm EST

Thu Feb 29, 7:10pm EST

Thu Feb 29, 6:10pm EST

Thu Feb 29, 5:10pm EST

Thu Feb 29, 4:10pm EST

Thu Feb 29, 3:10pm EST

Thu Feb 29, 2:10pm EST

Thu Feb 29, 1:10pm EST

Thu Feb 29, 12:10pm EST

Thu Feb 29, 11:10am EST

Thu Feb 29, 10:10am EST

Thu Feb 29, 9:10am EST

Thu Feb 29, 8:10am EST

Thu Feb 29, 7:10am EST

Thu Feb 29, 6:10am EST

Thu Feb 29, 5:10am EST

Thu Feb 29, 4:10am EST

Thu Feb 29, 3:10am EST

Thu Feb 29, 2:10am EST

Thu Feb 29, 1:10am EST

Thu Feb 29, 12:10am EST

Wed Feb 28, 11:10pm EST

Wed Feb 28, 10:10pm EST

Wed Feb 28, 9:10pm EST

Wed Feb 28, 8:10pm EST

Wed Feb 28, 7:10pm EST

Wed Feb 28, 6:10pm EST

Wed Feb 28, 5:10pm EST

Wed Feb 28, 4:10pm EST

Wed Feb 28, 3:10pm EST

Wed Feb 28, 2:10pm EST

Wed Feb 28, 1:10pm EST

Wed Feb 28, 12:10pm EST

Wed Feb 28, 11:10am EST

Wed Feb 28, 10:10am EST

Wed Feb 28, 9:10am EST

Wed Feb 28, 8:10am EST

Wed Feb 28, 7:10am EST

Wed Feb 28, 6:10am EST

Wed Feb 28, 5:10am EST

Wed Feb 28, 4:10am EST

Wed Feb 28, 3:10am EST

Wed Feb 28, 2:10am EST

Wed Feb 28, 1:10am EST

Wed Feb 28, 12:10am EST

Tue Feb 27, 11:10pm EST

Tue Feb 27, 10:10pm EST

Tue Feb 27, 9:10pm EST

Tue Feb 27, 8:10pm EST

Tue Feb 27, 7:10pm EST

Tue Feb 27, 6:10pm EST

Tue Feb 27, 5:10pm EST

Tue Feb 27, 4:10pm EST

Tue Feb 27, 3:10pm EST

Tue Feb 27, 2:10pm EST

Tue Feb 27, 1:10pm EST

Tue Feb 27, 12:10pm EST

Tue Feb 27, 11:10am EST

Tue Feb 27, 10:10am EST

Tue Feb 27, 9:10am EST

Tue Feb 27, 8:10am EST

Tue Feb 27, 7:10am EST

Tue Feb 27, 6:10am EST

Tue Feb 27, 5:10am EST

Tue Feb 27, 4:10am EST

Tue Feb 27, 2:10am EST

Tue Feb 27, 1:10am EST

Tue Feb 27, 12:10am EST

Mon Feb 26, 11:10pm EST

Mon Feb 26, 10:10pm EST

Mon Feb 26, 9:10pm EST

Mon Feb 26, 8:10pm EST

Mon Feb 26, 7:10pm EST

Mon Feb 26, 6:10pm EST

Mon Feb 26, 5:10pm EST

Mon Feb 26, 4:10pm EST

Mon Feb 26, 3:10pm EST

Mon Feb 26, 2:10pm EST

Mon Feb 26, 1:10pm EST

Mon Feb 26, 12:10pm EST

Mon Feb 26, 11:10am EST

Mon Feb 26, 10:10am EST

Mon Feb 26, 9:10am EST

Mon Feb 26, 8:10am EST

Mon Feb 26, 7:10am EST

Mon Feb 26, 6:10am EST

Mon Feb 26, 5:10am EST

Mon Feb 26, 4:10am EST

Mon Feb 26, 3:10am EST

Mon Feb 26, 2:10am EST

Mon Feb 26, 1:10am EST

Mon Feb 26, 12:10am EST

Sun Feb 25, 11:10pm EST

Sun Feb 25, 10:10pm EST

Sun Feb 25, 9:10pm EST

Sun Feb 25, 8:10pm EST

Sun Feb 25, 7:10pm EST

Sun Feb 25, 6:10pm EST

Sun Feb 25, 5:10pm EST

Sun Feb 25, 4:10pm EST

Sun Feb 25, 3:10pm EST

Sun Feb 25, 2:10pm EST

Sun Feb 25, 1:10pm EST

Sun Feb 25, 12:10pm EST

Sun Feb 25, 11:10am EST

Sun Feb 25, 10:10am EST

Sun Feb 25, 9:10am EST

Sun Feb 25, 8:10am EST

Sun Feb 25, 7:10am EST

Sun Feb 25, 6:10am EST

Sun Feb 25, 5:10am EST

Sun Feb 25, 4:10am EST

Sun Feb 25, 3:10am EST

Sun Feb 25, 2:10am EST

Sun Feb 25, 1:10am EST

Sun Feb 25, 12:10am EST

Sat Feb 24, 11:10pm EST

Sat Feb 24, 10:10pm EST

Sat Feb 24, 9:10pm EST

Sat Feb 24, 8:10pm EST

Sat Feb 24, 7:10pm EST

Sat Feb 24, 6:10pm EST

Sat Feb 24, 5:10pm EST

Sat Feb 24, 4:10pm EST

Sat Feb 24, 3:10pm EST

Sat Feb 24, 2:10pm EST

Sat Feb 24, 1:10pm EST

Sat Feb 24, 12:10pm EST

Sat Feb 24, 11:10am EST

Sat Feb 24, 10:10am EST

Sat Feb 24, 9:10am EST